This is the latest recevied weather packets stored in our database for station/object JS2WAD-13. If no packets are shown the sender has not sent any weather packets the latest 10 day(s).
| Time | Temp. | Humidity | Pressure | Rain* | Wind** | Luminosity | Snow |
|---|---|---|---|---|---|---|---|
| 1777794990 | 19.44° C | 83% | 898.6 hPa | 0 mm | - | 0 W/m² | - |
| 1777794690 | 19.44° C | 83% | 898.6 hPa | 0.25 mm | - | 0 W/m² | - |
| 1777794390 | 19.44° C | 83% | 898.4 hPa | 0.25 mm | - | 0 W/m² | - |
| 1777794090 | 19.44° C | 83% | 898.5 hPa | 0.25 mm | - | 0 W/m² | - |
| 1777793790 | 19.44° C | 83% | 898.6 hPa | 0.25 mm | - | 5 W/m² | - |
| 1777793490 | 19.44° C | 83% | 898.6 hPa | 0.25 mm | - | 5 W/m² | - |
| 1777793190 | 19.44° C | 83% | 898.6 hPa | 0.25 mm | - | 5 W/m² | - |
| 1777792890 | 19.44° C | 83% | 898.7 hPa | 0.25 mm | - | 5 W/m² | - |
| 1777792590 | 19.44° C | 83% | 898.8 hPa | 0.25 mm | - | 5 W/m² | - |
| 1777792290 | 19.44° C | 83% | 899 hPa | 0.25 mm | - | 5 W/m² | - |
| 1777791990 | 20° C | 82% | 899 hPa | 0.25 mm | - | 7 W/m² | - |
| 1777791690 | 20° C | 83% | 899.2 hPa | 0.25 mm | - | 9 W/m² | - |
| 1777791390 | 20° C | 82% | 899.3 hPa | 0.25 mm | - | 9 W/m² | - |
| 1777791090 | 20° C | 82% | 899.3 hPa | 0 mm | - | 14 W/m² | - |
| 1777790790 | 20.56° C | 80% | 899.4 hPa | 0 mm | - | 14 W/m² | - |
| 1777790490 | 20.56° C | 79% | 899.3 hPa | 0 mm | - | 12 W/m² | - |
| 1777790190 | 21.11° C | 77% | 899.3 hPa | 0 mm | - | 12 W/m² | - |
| 1777789890 | 21.11° C | 75% | 899.5 hPa | 0 mm | - | 26 W/m² | - |
| 1777789590 | 21.11° C | 74% | 899.6 hPa | 0 mm | - | 14 W/m² | - |
| 1777789290 | 21.11° C | 74% | 899.4 hPa | 0 mm | - | 11 W/m² | - |
| 1777788990 | 21.11° C | 73% | 899.3 hPa | 0 mm | - | 12 W/m² | - |
| 1777788690 | 21.11° C | 73% | 899.3 hPa | 0 mm | - | 18 W/m² | - |
| 1777788390 | 21.11° C | 73% | 899.5 hPa | 0 mm | - | 21 W/m² | - |
| 1777788090 | 21.11° C | 73% | 899.5 hPa | 0 mm | - | 25 W/m² | - |
| 1777787790 | 21.11° C | 73% | 899.4 hPa | 0 mm | - | 26 W/m² | - |
* Rain latest hour (hover to see other rain measurements)
** Current wind speed in m/s (hover to see current wind gust speed)